Time,TemperatureF,DewpointF,PressureIn,WindDirection,WindDirectionDegrees,WindSpeedMPH,WindSpeedGustMPH,Humidity,HourlyPrecipIn,Conditions,Clouds,dailyrainin,SoftwareType,DateUTC
2013-08-23 00:01:00,83.5,72.7,29.95,ESE,108,3.0,5.0,70,0.00,,---,0.05,VWS V14.01,2013-08-23 05:01:00,
2013-08-23 00:06:00,83.5,73.1,29.95,SE,127,4.0,4.0,71,0.00,,---,0.00,VWS V14.01,2013-08-23 05:06:00,
2013-08-23 00:11:00,83.3,72.1,29.95,ESE,115,3.0,4.0,69,0.00,,---,0.00,VWS V14.01,2013-08-23 05:11:00,
2013-08-23 00:16:00,83.1,71.9,29.95,SE,133,2.0,4.0,69,0.00,,---,0.00,VWS V14.01,2013-08-23 05:16:00,
2013-08-23 00:21:00,83.0,72.2,29.95,ESE,114,2.0,4.0,70,0.00,,---,0.00,VWS V14.01,2013-08-23 05:21:00,
2013-08-23 00:26:00,82.8,72.0,29.95,ESE,110,1.0,4.0,70,0.00,,---,0.00,VWS V14.01,2013-08-23 05:26:00,
2013-08-23 00:31:00,82.7,72.3,29.95,East,96,2.0,4.0,71,0.00,,---,0.00,VWS V14.01,2013-08-23 05:31:00,
2013-08-23 00:36:00,82.5,70.9,29.95,East,89,2.0,4.0,68,0.00,,---,0.00,VWS V14.01,2013-08-23 05:36:00,
2013-08-23 00:41:00,82.4,71.6,29.96,ESE,108,4.0,4.0,70,0.00,,---,0.00,VWS V14.01,2013-08-23 05:41:00,
2013-08-23 00:46:00,82.3,71.5,29.96,East,83,3.0,5.0,70,0.00,,---,0.00,VWS V14.01,2013-08-23 05:46:00,
2013-08-23 00:51:00,82.2,71.4,29.96,ENE,75,1.0,5.0,70,0.00,,---,0.00,VWS V14.01,2013-08-23 05:51:00,
2013-08-23 00:56:00,82.1,71.3,29.95,East,87,2.0,5.0,70,0.00,,---,0.00,VWS V14.01,2013-08-23 05:56:00,
2013-08-23 01:01:00,82.1,71.8,29.95,East,91,1.0,5.0,71,0.00,,---,0.00,VWS V14.01,2013-08-23 06:01:00,
2013-08-23 01:06:00,82.0,71.7,29.95,NE,53,1.0,3.0,71,0.00,,---,0.00,VWS V14.01,2013-08-23 06:06:00,
2013-08-23 01:11:00,81.9,71.6,29.95,East,90,1.0,3.0,71,0.00,,---,0.00,VWS V14.01,2013-08-23 06:11:00,
2013-08-23 01:16:00,81.8,71.1,29.95,ESE,104,0.0,3.0,70,0.00,,---,0.00,VWS V14.01,2013-08-23 06:16:00,
2013-08-23 01:21:00,81.8,71.1,29.95,ESE,120,2.0,3.0,70,0.00,,---,0.00,VWS V14.01,2013-08-23 06:21:00,
2013-08-23 01:26:00,81.8,71.1,29.95,ESE,107,2.0,3.0,70,0.00,,---,0.00,VWS V14.01,2013-08-23 06:26:00,
2013-08-23 01:31:00,81.8,71.1,29.95,SE,124,1.0,3.0,70,0.00,,---,0.00,VWS V14.01,2013-08-23 06:31:00,
2013-08-23 01:36:00,81.9,71.6,29.95,East,98,2.0,3.0,71,0.00,,---,0.00,VWS V14.01,2013-08-23 06:36:00,
2013-08-23 01:41:00,82.0,71.7,29.95,East,94,2.0,5.0,71,0.00,,---,0.00,VWS V14.01,2013-08-23 06:41:00,
2013-08-23 01:46:00,82.2,71.9,29.95,East,84,2.0,5.0,71,0.00,,---,0.00,VWS V14.01,2013-08-23 06:46:00,
2013-08-23 01:51:00,82.4,72.5,29.95,East,88,1.0,5.0,72,0.00,,---,0.00,VWS V14.01,2013-08-23 06:51:00,
2013-08-23 01:56:00,82.3,71.5,29.95,East,97,2.0,5.0,70,0.00,,---,0.00,VWS V14.01,2013-08-23 06:56:00,
2013-08-23 02:01:00,82.3,71.5,29.95,East,88,0.0,5.0,70,0.00,,---,0.00,VWS V14.01,2013-08-23 07:01:00,
2013-08-23 02:06:00,82.2,71.9,29.95,East,87,0.0,1.0,71,0.00,,---,0.00,VWS V14.01,2013-08-23 07:06:00,
2013-08-23 02:11:00,81.8,71.9,29.95,East,86,0.0,1.0,72,0.00,,---,0.00,VWS V14.01,2013-08-23 07:11:00,
2013-08-23 02:16:00,81.3,71.4,29.95,ENE,68,0.0,1.0,72,0.00,,---,0.00,VWS V14.01,2013-08-23 07:16:00,
2013-08-23 02:21:00,81.2,71.7,29.95,ENE,62,0.0,1.0,73,0.00,,---,0.00,VWS V14.01,2013-08-23 07:21:00,
2013-08-23 02:26:00,81.1,71.2,29.95,East,101,3.0,3.0,72,0.00,,---,0.00,VWS V14.01,2013-08-23 07:26:00,
2013-08-23 02:31:00,81.4,71.5,29.94,East,81,3.0,4.0,72,0.00,,---,0.00,VWS V14.01,2013-08-23 07:31:00,
2013-08-23 02:36:00,81.4,71.5,29.94,ENE,68,0.0,3.0,72,0.00,,---,0.00,VWS V14.01,2013-08-23 07:36:00,
2013-08-23 02:41:00,81.4,71.5,29.94,ENE,69,4.0,4.0,72,0.00,,---,0.00,VWS V14.01,2013-08-23 07:41:00,
2013-08-23 02:46:00,81.5,71.6,29.94,ESE,111,5.0,5.0,72,0.00,,---,0.00,VWS V14.01,2013-08-23 07:46:00,
2013-08-23 02:51:00,81.6,71.7,29.94,ESE,103,3.0,6.0,72,0.00,,---,0.00,VWS V14.01,2013-08-23 07:51:00,
2013-08-23 02:56:00,81.4,71.9,29.94,ESE,108,4.0,6.0,73,0.00,,---,0.00,VWS V14.01,2013-08-23 07:56:00,
2013-08-23 03:01:00,81.3,71.8,29.94,East,96,2.0,6.0,73,0.00,,---,0.00,VWS V14.01,2013-08-23 08:01:00,
2013-08-23 03:06:00,81.3,72.2,29.94,SSE,151,2.0,4.0,74,0.00,,---,0.00,VWS V14.01,2013-08-23 08:06:00,
2013-08-23 03:11:00,81.2,71.3,29.94,East,100,3.0,6.0,72,0.00,,---,0.00,VWS V14.01,2013-08-23 08:11:00,
2013-08-23 03:16:00,81.2,71.7,29.94,ESE,116,1.0,6.0,73,0.00,,---,0.00,VWS V14.01,2013-08-23 08:16:00,
2013-08-23 03:21:00,81.0,71.5,29.94,ESE,117,1.0,6.0,73,0.00,,---,0.00,VWS V14.01,2013-08-23 08:21:00,
2013-08-23 03:26:00,81.0,71.5,29.94,ESE,117,2.0,6.0,73,0.00,,---,0.00,VWS V14.01,2013-08-23 08:26:00,
2013-08-23 03:31:00,81.0,71.5,29.95,ESE,111,2.0,6.0,73,0.00,,---,0.00,VWS V14.01,2013-08-23 08:31:00,
2013-08-23 03:36:00,81.0,71.5,29.94,SE,127,1.0,3.0,73,0.00,,---,0.00,VWS V14.01,2013-08-23 08:36:00,
2013-08-23 03:41:00,80.9,71.8,29.94,East,98,1.0,4.0,74,0.00,,---,0.00,VWS V14.01,2013-08-23 08:41:00,
2013-08-23 03:46:00,80.8,71.7,29.94,SE,146,3.0,4.0,74,0.00,,---,0.00,VWS V14.01,2013-08-23 08:46:00,
2013-08-23 03:51:00,80.7,71.7,29.94,SE,139,1.0,4.0,74,0.00,,---,0.00,VWS V14.01,2013-08-23 08:51:00,
2013-08-23 03:56:00,80.6,71.6,29.94,ESE,110,1.0,4.0,74,0.00,,---,0.00,VWS V14.01,2013-08-23 08:56:00,
2013-08-23 04:01:00,80.7,71.2,29.94,SE,134,3.0,5.0,73,0.00,,---,0.00,VWS V14.01,2013-08-23 09:01:00,
2013-08-23 04:06:00,80.7,71.7,29.95,ESE,117,3.0,5.0,74,0.00,,---,0.00,VWS V14.01,2013-08-23 09:06:00,
2013-08-23 04:11:00,80.6,71.9,29.94,SSE,150,2.0,5.0,75,0.00,,---,0.00,VWS V14.01,2013-08-23 09:11:00,
2013-08-23 04:16:00,80.5,71.5,29.95,East,87,1.0,5.0,74,0.00,,---,0.00,VWS V14.01,2013-08-23 09:16:00,
2013-08-23 04:21:00,80.4,71.4,29.95,ESE,110,2.0,5.0,74,0.00,,---,0.00,VWS V14.01,2013-08-23 09:21:00,
2013-08-23 04:26:00,80.2,71.6,29.95,ESE,111,2.0,5.0,75,0.00,,---,0.00,VWS V14.01,2013-08-23 09:26:00,
2013-08-23 04:31:00,80.1,71.5,29.95,SSE,157,1.0,5.0,75,0.00,,---,0.00,VWS V14.01,2013-08-23 09:31:00,
2013-08-23 04:36:00,80.1,71.5,29.95,SE,134,2.0,4.0,75,0.00,,---,0.00,VWS V14.01,2013-08-23 09:36:00,
2013-08-23 04:41:00,80.0,71.4,29.95,East,96,1.0,4.0,75,0.00,,---,0.00,VWS V14.01,2013-08-23 09:41:00,
2013-08-23 04:46:00,80.0,71.4,29.95,East,100,1.0,4.0,75,0.00,,---,0.00,VWS V14.01,2013-08-23 09:46:00,
2013-08-23 04:51:00,79.8,71.2,29.95,SE,135,0.0,4.0,75,0.00,,---,0.00,VWS V14.01,2013-08-23 09:51:00,
2013-08-23 04:56:00,79.6,71.4,29.95,SE,135,0.0,4.0,76,0.00,,---,0.00,VWS V14.01,2013-08-23 09:56:00,
2013-08-23 05:01:00,79.3,71.5,29.95,SE,135,0.0,4.0,77,0.00,,---,0.00,VWS V14.01,2013-08-23 10:01:00,
2013-08-23 05:06:00,78.9,71.1,29.95,SE,135,0.0,0.0,77,0.00,,---,0.00,VWS V14.01,2013-08-23 10:06:00,
2013-08-23 05:11:00,78.6,71.6,29.96,SE,136,0.0,0.0,79,0.00,,---,0.00,VWS V14.01,2013-08-23 10:11:00,
2013-08-23 05:16:00,78.3,71.3,29.96,SE,135,0.0,0.0,79,0.00,,---,0.00,VWS V14.01,2013-08-23 10:16:00,
2013-08-23 05:21:00,78.1,71.8,29.95,SE,136,0.0,1.0,81,0.00,,---,0.00,VWS V14.01,2013-08-23 10:21:00,
2013-08-23 05:26:00,78.0,71.3,29.95,SE,138,1.0,1.0,80,0.00,,---,0.00,VWS V14.01,2013-08-23 10:26:00,
2013-08-23 05:31:00,77.9,71.2,29.95,SE,138,0.0,1.0,80,0.00,,---,0.00,VWS V14.01,2013-08-23 10:31:00,
2013-08-23 05:36:00,77.8,71.1,29.95,SE,136,0.0,1.0,80,0.00,,---,0.00,VWS V14.01,2013-08-23 10:36:00,
2013-08-23 05:41:00,77.8,71.9,29.95,SSW,194,0.0,1.0,82,0.00,,---,0.00,VWS V14.01,2013-08-23 10:41:00,
2013-08-23 05:46:00,77.7,71.4,29.95,SSE,150,0.0,2.0,81,0.00,,---,0.00,VWS V14.01,2013-08-23 10:46:00,
2013-08-23 05:51:00,77.6,71.3,29.95,SSE,157,0.0,2.0,81,0.00,,---,0.00,VWS V14.01,2013-08-23 10:51:00,
2013-08-23 05:56:00,77.5,71.6,29.96,SSE,157,0.0,2.0,82,0.00,,---,0.00,VWS V14.01,2013-08-23 10:56:00,
2013-08-23 06:01:00,77.4,71.8,29.96,SSE,157,0.0,2.0,83,0.00,,---,0.00,VWS V14.01,2013-08-23 11:01:00,
2013-08-23 06:06:00,77.3,71.7,29.96,SSE,157,0.0,0.0,83,0.00,,---,0.00,VWS V14.01,2013-08-23 11:06:00,
2013-08-23 06:11:00,77.1,71.9,29.96,SSE,158,0.0,0.0,84,0.00,,---,0.00,VWS V14.01,2013-08-23 11:11:00,
2013-08-23 06:16:00,76.9,72.1,29.96,SSE,158,0.0,0.0,85,0.00,,---,0.00,VWS V14.01,2013-08-23 11:16:00,
2013-08-23 06:21:00,76.7,71.9,29.96,SSE,158,0.0,0.0,85,0.00,,---,0.00,VWS V14.01,2013-08-23 11:21:00,
2013-08-23 06:26:00,76.5,72.0,29.96,SSE,158,0.0,0.0,86,0.00,,---,0.00,VWS V14.01,2013-08-23 11:26:00,
2013-08-23 06:31:00,76.6,72.4,29.96,SSE,158,0.0,0.0,87,0.00,,---,0.00,VWS V14.01,2013-08-23 11:31:00,
2013-08-23 06:36:00,76.5,72.3,29.96,SSE,158,0.0,0.0,87,0.00,,---,0.00,VWS V14.01,2013-08-23 11:36:00,
2013-08-23 06:41:00,76.3,72.2,29.97,SSE,158,0.0,0.0,87,0.00,,---,0.00,VWS V14.01,2013-08-23 11:41:00,
2013-08-23 06:46:00,76.3,72.2,29.97,SSE,158,0.0,0.0,87,0.00,,---,0.00,VWS V14.01,2013-08-23 11:46:00,
2013-08-23 06:51:00,76.2,72.1,29.97,SSE,157,0.0,0.0,87,0.00,,---,0.00,VWS V14.01,2013-08-23 11:51:00,
2013-08-23 06:56:00,76.2,72.4,29.97,SSE,158,0.0,0.0,88,0.00,,---,0.00,VWS V14.01,2013-08-23 11:56:00,
2013-08-23 07:01:00,76.1,72.3,29.97,SSE,158,0.0,0.0,88,0.00,,---,0.00,VWS V14.01,2013-08-23 12:01:00,
2013-08-23 07:06:00,75.9,72.1,29.97,SSE,158,0.0,0.0,88,0.00,,---,0.00,VWS V14.01,2013-08-23 12:06:00,
2013-08-23 07:11:00,75.7,71.9,29.97,SSE,158,0.0,0.0,88,0.00,,---,0.00,VWS V14.01,2013-08-23 12:11:00,
2013-08-23 07:16:00,75.7,72.2,29.97,SSE,158,0.0,0.0,89,0.00,,---,0.00,VWS V14.01,2013-08-23 12:16:00,
2013-08-23 07:21:00,75.7,72.6,29.97,SSE,158,0.0,0.0,90,0.00,,---,0.00,VWS V14.01,2013-08-23 12:21:00,
2013-08-23 07:26:00,75.9,72.8,29.98,SSE,156,0.0,0.0,90,0.00,,---,0.00,VWS V14.01,2013-08-23 12:26:00,
2013-08-23 07:31:00,76.0,72.9,29.97,SSE,157,0.0,0.0,90,0.00,,---,0.00,VWS V14.01,2013-08-23 12:31:00,
2013-08-23 07:36:00,76.2,73.1,29.98,SSE,158,0.0,0.0,90,0.00,,---,0.00,VWS V14.01,2013-08-23 12:36:00,
2013-08-23 07:41:00,76.4,73.2,29.98,SSE,156,0.0,0.0,90,0.00,,---,0.00,VWS V14.01,2013-08-23 12:41:00,
2013-08-23 07:46:00,76.6,73.4,29.98,SSE,156,0.0,0.0,90,0.00,,---,0.00,VWS V14.01,2013-08-23 12:46:00,
2013-08-23 07:51:00,76.8,73.7,29.98,SSE,162,0.0,0.0,90,0.00,,---,0.00,VWS V14.01,2013-08-23 12:51:00,
2013-08-23 07:56:00,77.1,73.6,29.98,SSE,151,0.0,1.0,89,0.00,,---,0.00,VWS V14.01,2013-08-23 12:56:00,
2013-08-23 08:01:00,77.4,72.9,29.98,SSE,163,2.0,2.0,86,0.00,,---,0.00,VWS V14.01,2013-08-23 13:01:00,
2013-08-23 08:06:00,78.1,72.9,29.98,SSE,166,2.0,3.0,84,0.00,,---,0.00,VWS V14.01,2013-08-23 13:06:00,
2013-08-23 08:11:00,78.9,73.3,29.98,SSE,162,3.0,4.0,83,0.00,,---,0.00,VWS V14.01,2013-08-23 13:11:00,
2013-08-23 08:16:00,79.5,73.2,29.98,SSE,163,2.0,4.0,81,0.00,,---,0.00,VWS V14.01,2013-08-23 13:16:00,
2013-08-23 08:21:00,80.1,73.4,29.99,South,191,1.0,4.0,80,0.00,,---,0.00,VWS V14.01,2013-08-23 13:21:00,
2013-08-23 08:26:00,80.7,73.6,29.98,SE,143,1.0,4.0,79,0.00,,---,0.00,VWS V14.01,2013-08-23 13:26:00,
2013-08-23 08:30:00,81.4,73.9,29.99,SSE,161,1.0,4.0,78,0.00,,---,0.00,VWS V14.01,2013-08-23 13:30:00,
2013-08-23 08:35:00,82.1,73.8,29.99,SSE,160,0.0,1.0,76,0.00,,---,0.00,VWS V14.01,2013-08-23 13:35:00,
2013-08-23 08:40:00,82.7,74.0,29.99,SSE,160,0.0,1.0,75,0.00,,---,0.00,VWS V14.01,2013-08-23 13:40:00,
2013-08-23 08:45:00,83.4,74.2,29.99,SSE,153,0.0,1.0,74,0.00,,---,0.00,VWS V14.01,2013-08-23 13:45:00,
2013-08-23 08:50:00,83.4,74.2,29.99,SSW,200,0.0,1.0,74,0.00,,---,0.00,VWS V14.01,2013-08-23 13:50:00,
2013-08-23 08:55:00,83.5,73.9,29.99,SSW,200,0.0,2.0,73,0.00,,---,0.00,VWS V14.01,2013-08-23 13:55:00,
2013-08-23 09:00:00,84.1,74.1,29.99,SSW,195,1.0,2.0,72,0.00,,---,0.00,VWS V14.01,2013-08-23 14:00:00,
2013-08-23 09:05:00,84.5,74.1,29.99,SSW,200,1.0,2.0,71,0.00,,---,0.00,VWS V14.01,2013-08-23 14:05:00,
2013-08-23 09:10:00,84.8,74.4,29.99,SSW,198,0.0,2.0,71,0.00,,---,0.00,VWS V14.01,2013-08-23 14:10:00,
2013-08-23 09:15:00,85.6,74.7,29.98,SSW,201,1.0,2.0,70,0.00,,---,0.00,VWS V14.01,2013-08-23 14:15:00,
2013-08-23 09:20:00,86.4,74.6,29.98,ESE,122,0.0,3.0,68,0.00,,---,0.00,VWS V14.01,2013-08-23 14:20:00,
2013-08-23 09:25:00,86.7,74.4,29.98,South,190,0.0,3.0,67,0.00,,---,0.00,VWS V14.01,2013-08-23 14:25:00,
2013-08-23 09:30:00,87.6,74.8,29.98,SSE,156,0.0,3.0,66,0.00,,---,0.00,VWS V14.01,2013-08-23 14:30:00,
2013-08-23 09:35:00,88.3,74.6,29.98,SSW,200,1.0,2.0,64,0.00,,---,0.00,VWS V14.01,2013-08-23 14:35:00,
2013-08-23 09:40:00,88.7,75.0,29.98,SE,129,0.0,2.0,64,0.00,,---,0.00,VWS V14.01,2013-08-23 14:40:00,
2013-08-23 09:45:00,88.9,74.7,29.98,SSW,203,1.0,4.0,63,0.00,,---,0.00,VWS V14.01,2013-08-23 14:45:00,
2013-08-23 09:50:00,88.8,73.6,29.98,SSE,159,2.0,4.0,61,0.00,,---,0.00,VWS V14.01,2013-08-23 14:50:00,
2013-08-23 09:55:00,89.2,74.5,29.98,WSW,239,0.0,4.0,62,0.00,,---,0.00,VWS V14.01,2013-08-23 14:55:00,
2013-08-23 10:00:00,89.9,74.2,29.98,West,259,0.0,4.0,60,0.00,,---,0.00,VWS V14.01,2013-08-23 15:00:00,
2013-08-23 10:05:00,90.0,75.2,29.99,East,96,1.0,4.0,62,0.00,,---,0.00,VWS V14.01,2013-08-23 15:05:00,
2013-08-23 10:10:00,90.2,76.8,29.99,East,98,3.0,4.0,65,0.00,,---,0.00,VWS V14.01,2013-08-23 15:10:00,
2013-08-23 10:15:00,89.7,76.8,29.99,East,98,3.0,4.0,66,0.00,,---,0.00,VWS V14.01,2013-08-23 15:15:00,
2013-08-23 10:20:00,89.4,76.6,29.99,ESE,109,4.0,4.0,66,0.00,,---,0.00,VWS V14.01,2013-08-23 15:20:00,
2013-08-23 10:25:00,88.9,76.1,29.99,ESE,102,3.0,5.0,66,0.00,,---,0.00,VWS V14.01,2013-08-23 15:25:00,
2013-08-23 10:30:00,89.2,76.8,29.99,ESE,102,4.0,5.0,67,0.00,,---,0.00,VWS V14.01,2013-08-23 15:30:00,
2013-08-23 10:35:00,89.4,76.1,29.99,SE,132,2.0,4.0,65,0.00,,---,0.00,VWS V14.01,2013-08-23 15:35:00,
2013-08-23 10:40:00,88.9,76.5,29.99,East,89,3.0,5.0,67,0.00,,---,0.00,VWS V14.01,2013-08-23 15:40:00,
2013-08-23 10:45:00,89.6,76.7,29.99,ENE,67,4.0,5.0,66,0.00,,---,0.00,VWS V14.01,2013-08-23 15:45:00,
2013-08-23 10:50:00,89.4,76.1,29.99,SE,127,2.0,5.0,65,0.00,,---,0.00,VWS V14.01,2013-08-23 15:50:00,
2013-08-23 10:55:00,89.1,76.3,29.99,ESE,103,4.0,5.0,66,0.00,,---,0.00,VWS V14.01,2013-08-23 15:55:00,
2013-08-23 11:00:00,89.3,76.5,29.98,NNW,338,1.0,5.0,66,0.00,,---,0.00,VWS V14.01,2013-08-23 16:00:00,
2013-08-23 11:05:00,89.9,76.6,29.98,ESE,111,4.0,4.0,65,0.00,,---,0.00,VWS V14.01,2013-08-23 16:05:00,
2013-08-23 11:10:00,90.3,76.5,29.98,ENE,65,3.0,4.0,64,0.00,,---,0.00,VWS V14.01,2013-08-23 16:10:00,
2013-08-23 11:15:00,90.9,77.0,29.98,East,96,2.0,4.0,64,0.00,,---,0.00,VWS V14.01,2013-08-23 16:15:00,
2013-08-23 11:20:00,90.8,76.5,29.98,ESE,117,4.0,5.0,63,0.00,,---,0.00,VWS V14.01,2013-08-23 16:20:00,
2013-08-23 11:25:00,91.1,76.3,29.98,ESE,105,3.0,5.0,62,0.00,,---,0.00,VWS V14.01,2013-08-23 16:25:00,
2013-08-23 11:30:00,91.4,77.0,29.98,SE,135,3.0,5.0,63,0.00,,---,0.00,VWS V14.01,2013-08-23 16:30:00,
2013-08-23 11:35:00,91.4,76.6,29.98,ESE,104,2.0,4.0,62,0.00,,---,0.00,VWS V14.01,2013-08-23 16:35:00,
2013-08-23 11:40:00,91.6,76.2,29.98,East,91,4.0,5.0,61,0.00,,---,0.00,VWS V14.01,2013-08-23 16:40:00,
2013-08-23 11:45:00,91.8,75.9,29.98,East,101,3.0,5.0,60,0.00,,---,0.00,VWS V14.01,2013-08-23 16:45:00,
2013-08-23 11:50:00,91.8,76.9,29.98,East,94,3.0,5.0,62,0.00,,---,0.00,VWS V14.01,2013-08-23 16:50:00,
2013-08-23 11:55:00,91.9,76.0,29.98,ESE,118,3.0,5.0,60,0.00,,---,0.00,VWS V14.01,2013-08-23 16:55:00,
2013-08-23 12:00:00,92.7,76.8,29.97,East,82,1.0,5.0,60,0.00,,---,0.00,VWS V14.01,2013-08-23 17:00:00,
2013-08-23 12:05:00,93.0,75.0,29.97,ESE,111,2.0,3.0,56,0.00,,---,0.00,VWS V14.01,2013-08-23 17:05:00,
2013-08-23 12:10:00,93.0,74.5,29.97,ESE,120,2.0,3.0,55,0.00,,---,0.00,VWS V14.01,2013-08-23 17:10:00,
2013-08-23 12:15:00,92.9,73.8,29.97,SE,139,1.0,3.0,54,0.00,,---,0.00,VWS V14.01,2013-08-23 17:15:00,
2013-08-23 12:20:00,93.0,73.9,29.96,SE,134,2.0,3.0,54,0.00,,---,0.00,VWS V14.01,2013-08-23 17:20:00,
2013-08-23 12:25:00,93.6,74.5,29.97,ESE,108,3.0,4.0,54,0.00,,---,0.00,VWS V14.01,2013-08-23 17:25:00,
2013-08-23 12:30:00,94.4,72.9,29.97,ESE,120,1.0,4.0,50,0.00,,---,0.00,VWS V14.01,2013-08-23 17:30:00,
2013-08-23 12:35:00,95.4,72.6,29.96,East,96,2.0,3.0,48,0.00,,---,0.00,VWS V14.01,2013-08-23 17:35:00,
2013-08-23 12:40:00,95.9,71.8,29.96,ESE,117,2.0,3.0,46,0.00,,---,0.00,VWS V14.01,2013-08-23 17:40:00,
2013-08-23 12:45:00,96.2,71.4,29.96,ESE,104,0.0,3.0,45,0.00,,---,0.00,VWS V14.01,2013-08-23 17:45:00,
2013-08-23 12:50:00,96.8,71.3,29.96,SE,127,1.0,3.0,44,0.00,,---,0.00,VWS V14.01,2013-08-23 17:50:00,
2013-08-23 12:55:00,97.3,71.8,29.96,SE,132,1.0,3.0,44,0.00,,---,0.00,VWS V14.01,2013-08-23 17:55:00,
2013-08-23 13:00:00,98.1,71.1,29.96,SSW,194,1.0,3.0,42,0.00,,---,0.00,VWS V14.01,2013-08-23 18:00:00,
2013-08-23 13:05:00,99.4,72.3,29.95,NE,53,0.0,2.0,42,0.00,,---,0.00,VWS V14.01,2013-08-23 18:05:00,
2013-08-23 13:10:00,100.4,71.0,29.95,South,170,1.0,3.0,39,0.00,,---,0.00,VWS V14.01,2013-08-23 18:10:00,
2013-08-23 13:15:00,100.1,70.7,29.95,NW,315,2.0,3.0,39,0.00,,---,0.00,VWS V14.01,2013-08-23 18:15:00,
2013-08-23 13:20:00,98.8,70.3,29.95,NW,325,0.0,3.0,40,0.00,,---,0.00,VWS V14.01,2013-08-23 18:20:00,
2013-08-23 13:25:00,99.0,71.2,29.95,SE,141,1.0,3.0,41,0.00,,---,0.00,VWS V14.01,2013-08-23 18:25:00,
2013-08-23 13:30:00,98.0,71.0,29.94,ESE,118,0.0,4.0,42,0.00,,---,0.00,VWS V14.01,2013-08-23 18:30:00,
2013-08-23 13:35:00,98.0,70.3,29.94,SE,139,3.0,3.0,41,0.00,,---,0.00,VWS V14.01,2013-08-23 18:35:00,
2013-08-23 13:40:00,97.4,70.5,29.94,East,82,1.0,3.0,42,0.00,,---,0.00,VWS V14.01,2013-08-23 18:40:00,
2013-08-23 13:45:00,97.5,70.6,29.93,SE,143,1.0,3.0,42,0.00,,---,0.00,VWS V14.01,2013-08-23 18:45:00,
2013-08-23 13:50:00,97.4,71.2,29.93,SSW,202,1.0,4.0,43,0.00,,---,0.00,VWS V14.01,2013-08-23 18:50:00,
2013-08-23 13:55:00,98.9,71.1,29.93,East,90,2.0,4.0,41,0.00,,---,0.00,VWS V14.01,2013-08-23 18:55:00,
2013-08-23 14:00:00,100.3,71.6,29.93,NE,38,4.0,4.0,40,0.00,,---,0.00,VWS V14.01,2013-08-23 19:00:00,
2013-08-23 14:05:00,100.6,71.2,29.93,East,92,0.0,4.0,39,0.00,,---,0.00,VWS V14.01,2013-08-23 19:05:00,
2013-08-23 14:10:00,100.4,71.0,29.93,East,93,1.0,4.0,39,0.00,,---,0.00,VWS V14.01,2013-08-23 19:10:00,
2013-08-23 14:15:00,101.0,70.7,29.93,East,90,2.0,4.0,38,0.00,,---,0.00,VWS V14.01,2013-08-23 19:15:00,
2013-08-23 14:20:00,101.0,70.7,29.92,SE,125,1.0,4.0,38,0.00,,---,0.00,VWS V14.01,2013-08-23 19:20:00,
2013-08-23 14:25:00,100.9,70.7,29.92,SSW,196,2.0,4.0,38,0.00,,---,0.00,VWS V14.01,2013-08-23 19:25:00,
2013-08-23 14:30:00,101.0,69.9,29.92,East,89,0.0,4.0,37,0.00,,---,0.00,VWS V14.01,2013-08-23 19:30:00,
2013-08-23 14:35:00,101.7,71.3,29.91,NE,47,2.0,4.0,38,0.00,,---,0.00,VWS V14.01,2013-08-23 19:35:00,
2013-08-23 14:40:00,101.8,70.7,29.91,NNW,337,2.0,4.0,37,0.00,,---,0.00,VWS V14.01,2013-08-23 19:40:00,
2013-08-23 14:45:00,101.8,69.8,29.91,ESE,114,1.0,4.0,36,0.00,,---,0.00,VWS V14.01,2013-08-23 19:45:00,
2013-08-23 14:50:00,101.6,70.5,29.91,ENE,60,0.0,4.0,37,0.00,,---,0.00,VWS V14.01,2013-08-23 19:50:00,
2013-08-23 14:55:00,101.7,72.9,29.90,WNW,293,0.0,4.0,40,0.00,,---,0.00,VWS V14.01,2013-08-23 19:55:00,
2013-08-23 15:00:00,101.9,70.8,29.90,NE,51,1.0,4.0,37,0.00,,---,0.00,VWS V14.01,2013-08-23 20:00:00,
2013-08-23 15:05:00,101.9,69.9,29.90,NW,308,1.0,4.0,36,0.00,,---,0.00,VWS V14.01,2013-08-23 20:05:00,
2013-08-23 15:10:00,101.7,70.6,29.89,ENE,64,1.0,4.0,37,0.00,,---,0.00,VWS V14.01,2013-08-23 20:10:00,
2013-08-23 15:15:00,101.9,68.3,29.89,ENE,62,1.0,5.0,34,0.00,,---,0.00,VWS V14.01,2013-08-23 20:15:00,
2013-08-23 15:20:00,101.5,68.8,29.89,SE,141,2.0,5.0,35,0.00,,---,0.00,VWS V14.01,2013-08-23 20:20:00,
2013-08-23 15:25:00,101.5,68.8,29.89,SSE,163,2.0,6.0,35,0.00,,---,0.00,VWS V14.01,2013-08-23 20:25:00,
2013-08-23 15:30:00,101.7,68.9,29.88,South,190,0.0,6.0,35,0.00,,---,0.00,VWS V14.01,2013-08-23 20:30:00,
2013-08-23 15:35:00,102.3,69.5,29.88,NE,49,2.0,2.0,35,0.00,,---,0.00,VWS V14.01,2013-08-23 20:35:00,
2013-08-23 15:40:00,102.5,68.8,29.88,ESE,122,3.0,4.0,34,0.00,,---,0.00,VWS V14.01,2013-08-23 20:40:00,
2013-08-23 15:45:00,101.5,68.8,29.88,East,97,2.0,4.0,35,0.00,,---,0.00,VWS V14.01,2013-08-23 20:45:00,
2013-08-23 15:50:00,101.5,68.8,29.88,East,96,0.0,4.0,35,0.00,,---,0.00,VWS V14.01,2013-08-23 20:50:00,
2013-08-23 15:55:00,102.3,69.5,29.88,ESE,121,2.0,4.0,35,0.00,,---,0.00,VWS V14.01,2013-08-23 20:55:00,
2013-08-23 16:00:00,102.7,69.0,29.87,SSW,212,0.0,4.0,34,0.00,,---,0.00,VWS V14.01,2013-08-23 21:00:00,
2013-08-23 16:05:00,103.5,69.7,29.87,WNW,301,0.0,2.0,34,0.00,,---,0.00,VWS V14.01,2013-08-23 21:05:00,
2013-08-23 16:10:00,103.5,67.9,29.87,NE,56,2.0,3.0,32,0.00,,---,0.00,VWS V14.01,2013-08-23 21:10:00,
2013-08-23 16:15:00,102.3,66.9,29.86,ESE,104,1.0,5.0,32,0.00,,---,0.00,VWS V14.01,2013-08-23 21:15:00,
2013-08-23 16:20:00,101.5,67.1,29.86,SE,142,1.0,5.0,33,0.00,,---,0.00,VWS V14.01,2013-08-23 21:20:00,
2013-08-23 16:25:00,101.7,67.2,29.86,West,269,2.0,5.0,33,0.00,,---,0.00,VWS V14.01,2013-08-23 21:25:00,
2013-08-23 16:30:00,102.0,67.5,29.86,SE,144,0.0,5.0,33,0.00,,---,0.00,VWS V14.01,2013-08-23 21:30:00,
2013-08-23 16:35:00,102.6,68.0,29.86,ENE,75,1.0,2.0,33,0.00,,---,0.00,VWS V14.01,2013-08-23 21:35:00,
2013-08-23 16:40:00,102.4,69.6,29.86,East,84,1.0,3.0,35,0.00,,---,0.00,VWS V14.01,2013-08-23 21:40:00,
2013-08-23 16:45:00,101.8,69.0,29.86,NE,52,1.0,3.0,35,0.00,,---,0.00,VWS V14.01,2013-08-23 21:45:00,
2013-08-23 16:50:00,102.0,67.5,29.86,SE,136,1.0,4.0,33,0.00,,---,0.00,VWS V14.01,2013-08-23 21:50:00,
2013-08-23 16:55:00,100.9,72.9,29.86,SE,139,3.0,6.0,41,0.00,,---,0.00,VWS V14.01,2013-08-23 21:55:00,
2013-08-23 17:00:00,99.2,69.9,29.86,ESE,121,5.0,6.0,39,0.00,,---,0.00,VWS V14.01,2013-08-23 22:00:00,
2013-08-23 17:05:00,98.7,68.7,29.86,South,170,5.0,6.0,38,0.00,,---,0.00,VWS V14.01,2013-08-23 22:05:00,
2013-08-23 17:10:00,98.9,70.4,29.86,East,98,1.0,6.0,40,0.00,,---,0.00,VWS V14.01,2013-08-23 22:10:00,
2013-08-23 17:15:00,98.7,70.9,29.85,ESE,111,3.0,6.0,41,0.00,,---,0.00,VWS V14.01,2013-08-23 22:15:00,
2013-08-23 17:20:00,98.8,70.3,29.85,SE,134,2.0,6.0,40,0.00,,---,0.00,VWS V14.01,2013-08-23 22:20:00,
2013-08-23 17:25:00,98.5,70.8,29.85,ESE,115,2.0,6.0,41,0.00,,---,0.00,VWS V14.01,2013-08-23 22:25:00,
2013-08-23 17:30:00,98.9,69.6,29.85,ESE,121,1.0,6.0,39,0.00,,---,0.00,VWS V14.01,2013-08-23 22:30:00,
2013-08-23 17:35:00,99.3,69.2,29.85,ESE,113,0.0,2.0,38,0.00,,---,0.00,VWS V14.01,2013-08-23 22:35:00,
2013-08-23 17:40:00,100.5,70.3,29.85,NW,308,0.0,2.0,38,0.00,,---,0.00,VWS V14.01,2013-08-23 22:40:00,
2013-08-23 17:45:00,101.1,69.2,29.85,ESE,108,0.0,3.0,36,0.00,,---,0.00,VWS V14.01,2013-08-23 22:45:00,
2013-08-23 17:50:00,100.4,68.6,29.86,ENE,68,4.0,5.0,36,0.00,,---,0.00,VWS V14.01,2013-08-23 22:50:00,
2013-08-23 17:55:00,100.0,70.6,29.86,East,87,3.0,6.0,39,0.00,,---,0.00,VWS V14.01,2013-08-23 22:55:00,
2013-08-23 18:00:00,99.4,66.9,29.85,NE,44,1.0,7.0,35,0.00,,---,0.00,VWS V14.01,2013-08-23 23:00:00,
2013-08-23 18:05:00,98.4,66.9,29.86,ESE,103,4.0,7.0,36,0.00,,---,0.00,VWS V14.01,2013-08-23 23:05:00,
2013-08-23 18:10:00,97.7,68.6,29.85,East,83,1.0,7.0,39,0.00,,---,0.00,VWS V14.01,2013-08-23 23:10:00,
2013-08-23 18:15:00,97.5,69.9,29.86,East,99,0.0,7.0,41,0.00,,---,0.00,VWS V14.01,2013-08-23 23:15:00,
2013-08-23 18:20:00,97.3,70.4,29.86,ENE,78,1.0,7.0,42,0.00,,---,0.00,VWS V14.01,2013-08-23 23:20:00,
2013-08-23 18:25:00,97.1,71.6,29.85,SE,140,0.0,7.0,44,0.00,,---,0.00,VWS V14.01,2013-08-23 23:25:00,
2013-08-23 18:30:00,97.0,71.5,29.85,East,101,0.0,7.0,44,0.00,,---,0.00,VWS V14.01,2013-08-23 23:30:00,
2013-08-23 18:35:00,96.6,71.1,29.85,East,90,0.0,1.0,44,0.00,,---,0.00,VWS V14.01,2013-08-23 23:35:00,
2013-08-23 18:40:00,96.1,70.0,29.85,East,89,0.0,1.0,43,0.00,,---,0.00,VWS V14.01,2013-08-23 23:40:00,
2013-08-23 18:45:00,96.2,71.4,29.85,East,87,0.0,1.0,45,0.00,,---,0.00,VWS V14.01,2013-08-23 23:45:00,
2013-08-23 18:50:00,96.2,72.1,29.85,East,83,1.0,2.0,46,0.00,,---,0.00,VWS V14.01,2013-08-23 23:50:00,
2013-08-23 18:55:00,95.8,71.1,29.85,East,91,1.0,2.0,45,0.00,,---,0.00,VWS V14.01,2013-08-23 23:55:00,
2013-08-23 19:00:00,95.6,68.9,29.84,ESE,108,2.0,4.0,42,0.00,,---,0.00,VWS V14.01,2013-08-24 00:00:00,
2013-08-23 19:05:00,95.4,70.1,29.84,SE,127,2.0,4.0,44,0.00,,---,0.00,VWS V14.01,2013-08-24 00:05:00,
2013-08-23 19:10:00,95.2,69.9,29.85,East,82,1.0,4.0,44,0.00,,---,0.00,VWS V14.01,2013-08-24 00:10:00,
2013-08-23 19:15:00,95.1,69.1,29.85,East,84,2.0,4.0,43,0.00,,---,0.00,VWS V14.01,2013-08-24 00:15:00,
2013-08-23 19:20:00,95.0,69.7,29.85,ENE,70,1.0,4.0,44,0.00,,---,0.00,VWS V14.01,2013-08-24 00:20:00,
2013-08-23 19:25:00,94.8,69.5,29.85,East,82,2.0,4.0,44,0.00,,---,0.00,VWS V14.01,2013-08-24 00:25:00,
2013-08-23 19:30:00,94.7,70.1,29.85,ENE,65,0.0,4.0,45,0.00,,---,0.00,VWS V14.01,2013-08-24 00:30:00,
2013-08-23 19:35:00,94.2,70.9,29.85,NNW,332,0.0,3.0,47,0.00,,---,0.00,VWS V14.01,2013-08-24 00:35:00,
2013-08-23 19:40:00,93.2,70.6,29.85,NNE,27,1.0,3.0,48,0.00,,---,0.00,VWS V14.01,2013-08-24 00:40:00,
2013-08-23 19:45:00,92.7,70.8,29.85,NNE,12,1.0,3.0,49,0.00,,---,0.00,VWS V14.01,2013-08-24 00:45:00,
2013-08-23 19:50:00,92.1,70.8,29.85,North,354,1.0,3.0,50,0.00,,---,0.00,VWS V14.01,2013-08-24 00:50:00,
2013-08-23 19:55:00,91.5,71.4,29.86,NW,323,0.0,4.0,52,0.00,,---,0.00,VWS V14.01,2013-08-24 00:55:00,
2013-08-23 20:00:00,91.0,70.4,29.86,NNW,335,0.0,4.0,51,0.00,,---,0.00,VWS V14.01,2013-08-24 01:00:00,
2013-08-23 20:05:00,90.7,70.7,29.86,NW,307,0.0,2.0,52,0.00,,---,0.00,VWS V14.01,2013-08-24 01:05:00,
2013-08-23 20:10:00,90.2,70.8,29.86,NW,312,0.0,2.0,53,0.00,,---,0.00,VWS V14.01,2013-08-24 01:10:00,
2013-08-23 20:15:00,89.8,70.4,29.86,NW,306,0.0,2.0,53,0.00,,---,0.00,VWS V14.01,2013-08-24 01:15:00,
2013-08-23 20:20:00,89.5,70.7,29.87,East,96,1.0,2.0,54,0.00,,---,0.00,VWS V14.01,2013-08-24 01:20:00,
2013-08-23 20:25:00,89.3,72.1,29.88,ESE,102,1.0,4.0,57,0.00,,---,0.00,VWS V14.01,2013-08-24 01:25:00,
2013-08-23 20:30:00,89.3,71.0,29.88,ENE,77,3.0,6.0,55,0.00,,---,0.00,VWS V14.01,2013-08-24 01:30:00,
2013-08-23 20:35:00,89.3,69.9,29.88,SE,129,1.0,1.0,53,0.00,,---,0.00,VWS V14.01,2013-08-24 01:35:00,
2013-08-23 20:40:00,89.2,70.9,29.88,NNW,330,1.0,3.0,55,0.00,,---,0.00,VWS V14.01,2013-08-24 01:40:00,
2013-08-23 20:45:00,88.8,69.5,29.88,NNW,337,0.0,3.0,53,0.00,,---,0.00,VWS V14.01,2013-08-24 01:45:00,
2013-08-23 20:50:00,88.5,70.3,29.89,NW,319,1.0,3.0,55,0.00,,---,0.00,VWS V14.01,2013-08-24 01:50:00,
2013-08-23 20:55:00,88.1,69.9,29.89,NW,324,0.0,3.0,55,0.00,,---,0.00,VWS V14.01,2013-08-24 01:55:00,
2013-08-23 21:00:00,87.7,70.1,29.89,NNW,342,0.0,3.0,56,0.00,,---,0.00,VWS V14.01,2013-08-24 02:00:00,
2013-08-23 21:05:00,87.4,70.3,29.89,NE,37,0.0,2.0,57,0.00,,---,0.00,VWS V14.01,2013-08-24 02:05:00,
2013-08-23 21:10:00,87.0,69.4,29.89,NE,37,0.0,2.0,56,0.00,,---,0.00,VWS V14.01,2013-08-24 02:10:00,
2013-08-23 21:15:00,86.8,69.8,29.90,ENE,64,0.0,2.0,57,0.00,,---,0.00,VWS V14.01,2013-08-24 02:15:00,
2013-08-23 21:20:00,86.6,69.6,29.90,East,82,0.0,2.0,57,0.00,,---,0.00,VWS V14.01,2013-08-24 02:20:00,
2013-08-23 21:25:00,86.5,70.0,29.90,East,82,0.0,2.0,58,0.00,,---,0.00,VWS V14.01,2013-08-24 02:25:00,
2013-08-23 21:30:00,86.3,69.8,29.91,East,83,1.0,2.0,58,0.00,,---,0.00,VWS V14.01,2013-08-24 02:30:00,
2013-08-23 21:35:00,86.0,70.0,29.91,East,83,1.0,1.0,59,0.00,,---,0.00,VWS V14.01,2013-08-24 02:35:00,
2013-08-23 21:40:00,85.7,70.7,29.91,East,83,0.0,1.0,61,0.00,,---,0.00,VWS V14.01,2013-08-24 02:40:00,
2013-08-23 21:45:00,85.3,70.8,29.91,East,84,0.0,1.0,62,0.00,,---,0.00,VWS V14.01,2013-08-24 02:45:00,
2013-08-23 21:50:00,84.9,70.9,29.92,East,85,0.0,1.0,63,0.00,,---,0.00,VWS V14.01,2013-08-24 02:50:00,
2013-08-23 21:55:00,84.5,70.5,29.92,East,85,0.0,1.0,63,0.00,,---,0.00,VWS V14.01,2013-08-24 02:55:00,
2013-08-23 22:00:00,84.3,70.8,29.92,East,85,0.0,1.0,64,0.00,,---,0.00,VWS V14.01,2013-08-24 03:00:00,
2013-08-23 22:05:00,84.1,70.6,29.92,East,84,0.0,0.0,64,0.00,,---,0.00,VWS V14.01,2013-08-24 03:05:00,
2013-08-23 22:10:00,84.0,71.0,29.92,East,85,0.0,0.0,65,0.00,,---,0.00,VWS V14.01,2013-08-24 03:10:00,
2013-08-23 22:15:00,83.8,70.8,29.93,East,83,0.0,0.0,65,0.00,,---,0.00,VWS V14.01,2013-08-24 03:15:00,
2013-08-23 22:20:00,83.8,70.8,29.93,East,83,0.0,2.0,65,0.00,,---,0.00,VWS V14.01,2013-08-24 03:20:00,
2013-08-23 22:25:00,83.6,70.6,29.92,East,83,2.0,2.0,65,0.00,,---,0.00,VWS V14.01,2013-08-24 03:25:00,
2013-08-23 22:30:00,83.7,70.7,29.93,East,83,0.0,2.0,65,0.00,,---,0.00,VWS V14.01,2013-08-24 03:30:00,
2013-08-23 22:35:00,83.9,70.9,29.93,East,84,1.0,2.0,65,0.00,,---,0.00,VWS V14.01,2013-08-24 03:35:00,
2013-08-23 22:40:00,83.8,71.2,29.93,East,83,0.0,2.0,66,0.00,,---,0.00,VWS V14.01,2013-08-24 03:40:00,
2013-08-23 22:45:00,83.7,71.1,29.93,East,83,1.0,2.0,66,0.00,,---,0.00,VWS V14.01,2013-08-24 03:45:00,
2013-08-23 22:50:00,83.5,71.4,29.93,East,83,1.0,2.0,67,0.00,,---,0.00,VWS V14.01,2013-08-24 03:50:00,
2013-08-23 22:55:00,83.2,71.1,29.93,East,83,0.0,2.0,67,0.00,,---,0.00,VWS V14.01,2013-08-24 03:55:00,
2013-08-23 23:00:00,83.0,71.4,29.93,East,83,0.0,2.0,68,0.00,,---,0.00,VWS V14.01,2013-08-24 04:00:00,
2013-08-23 23:01:00,83.0,71.4,29.93,East,84,0.0,2.0,68,0.00,,---,0.00,VWS V14.01,2013-08-24 04:01:00,
2013-08-23 23:06:00,82.8,71.6,29.93,East,84,0.0,2.0,69,0.00,,---,0.00,VWS V14.01,2013-08-24 04:06:00,
2013-08-23 23:11:00,82.7,71.5,29.93,East,83,0.0,2.0,69,0.00,,---,0.00,VWS V14.01,2013-08-24 04:11:00,
2013-08-23 23:16:00,82.6,71.4,29.93,ENE,78,0.0,2.0,69,0.00,,---,0.00,VWS V14.01,2013-08-24 04:16:00,
2013-08-23 23:21:00,82.4,71.2,29.93,East,84,0.0,2.0,69,0.00,,---,0.00,VWS V14.01,2013-08-24 04:21:00,
2013-08-23 23:26:00,82.1,71.3,29.93,East,84,0.0,2.0,70,0.00,,---,0.00,VWS V14.01,2013-08-24 04:26:00,
2013-08-23 23:31:00,81.9,71.2,29.93,East,84,1.0,2.0,70,0.00,,---,0.00,VWS V14.01,2013-08-24 04:31:00,
2013-08-23 23:36:00,82.5,70.9,29.94,East,88,2.0,4.0,68,0.00,,---,0.00,VWS V14.01,2013-08-24 04:36:00,
2013-08-23 23:41:00,83.2,71.6,29.94,East,86,2.0,4.0,68,0.00,,---,0.00,VWS V14.01,2013-08-24 04:41:00,
2013-08-23 23:46:00,83.8,70.8,29.94,East,84,3.0,5.0,65,0.00,,---,0.00,VWS V14.01,2013-08-24 04:46:00,
2013-08-23 23:51:00,83.9,70.4,29.94,East,93,3.0,5.0,64,0.00,,---,0.00,VWS V14.01,2013-08-24 04:51:00,
2013-08-23 23:56:00,84.1,71.1,29.94,East,86,2.0,5.0,65,0.00,,---,0.00,VWS V14.01,2013-08-24 04:56:00,